TimeCDT,TemperatureF,Dew PointF,Humidity,Sea Level PressureIn,VisibilityMPH,Wind Direction,Wind SpeedMPH,Gust SpeedMPH,PrecipitationIn,Events,Conditions,WindDirDegrees,DateUTC
12:15 AM,17.6,14.0,86,30.28,5.0,Calm,Calm,-,N/A,Snow,Light Snow,0,2014-03-24 05:15:00
12:35 AM,17.6,15.8,93,30.28,10.0,Calm,Calm,-,N/A,Snow,Light Snow,0,2014-03-24 05:35:00
12:55 AM,17.6,15.8,93,30.27,8.0,Calm,Calm,-,N/A,Snow,Light Snow,0,2014-03-24 05:55:00
1:15 AM,17.6,15.8,93,30.27,10.0,WSW,3.5,-,N/A,,Overcast,250,2014-03-24 06:15:00
1:35 AM,15.8,15.8,100,30.27,10.0,SW,5.8,-,N/A,,Scattered Clouds,220,2014-03-24 06:35:00
1:55 AM,15.8,14.0,93,30.27,10.0,SSW,5.8,-,N/A,,Partly Cloudy,200,2014-03-24 06:55:00
2:15 AM,14.0,14.0,100,30.26,10.0,SSW,5.8,-,N/A,,Scattered Clouds,200,2014-03-24 07:15:00
2:35 AM,14.0,14.0,100,30.26,10.0,SSW,5.8,-,N/A,,Mostly Cloudy,210,2014-03-24 07:35:00
2:55 AM,14.0,14.0,100,30.25,10.0,SW,5.8,-,N/A,,Overcast,220,2014-03-24 07:55:00
3:15 AM,14.0,14.0,100,30.25,10.0,SW,6.9,-,N/A,,Mostly Cloudy,230,2014-03-24 08:15:00
3:35 AM,12.2,12.2,100,30.24,10.0,SW,6.9,-,N/A,,Partly Cloudy,230,2014-03-24 08:35:00
3:55 AM,12.2,12.2,100,30.24,10.0,SW,5.8,-,N/A,,Clear,230,2014-03-24 08:55:00
4:15 AM,12.2,12.2,100,30.24,10.0,West,3.5,-,N/A,,Clear,280,2014-03-24 09:15:00
4:35 AM,10.4,10.4,100,30.24,10.0,West,4.6,-,N/A,,Clear,280,2014-03-24 09:35:00
4:55 AM,10.4,10.4,100,30.23,10.0,NW,5.8,-,N/A,,Clear,310,2014-03-24 09:55:00
5:15 AM,10.4,10.4,100,30.23,10.0,West,5.8,-,N/A,,Partly Cloudy,260,2014-03-24 10:15:00
5:35 AM,10.4,10.4,100,30.23,10.0,WNW,6.9,-,N/A,,Mostly Cloudy,290,2014-03-24 10:35:00
5:55 AM,14.0,14.0,100,30.23,10.0,WNW,8.1,-,N/A,,Mostly Cloudy,290,2014-03-24 10:55:00
6:15 AM,10.4,10.4,100,30.24,10.0,NW,10.4,-,N/A,,Scattered Clouds,310,2014-03-24 11:15:00
6:35 AM,10.4,8.6,92,30.24,10.0,WNW,9.2,-,N/A,,Clear,300,2014-03-24 11:35:00
6:55 AM,8.6,8.6,100,30.25,10.0,WNW,9.2,-,N/A,,Clear,300,2014-03-24 11:55:00
7:15 AM,8.6,6.8,92,30.25,10.0,NW,10.4,-,N/A,,Clear,310,2014-03-24 12:15:00
7:35 AM,6.8,6.8,100,30.25,10.0,WNW,8.1,-,N/A,,Clear,300,2014-03-24 12:35:00
7:55 AM,8.6,6.8,92,30.25,10.0,NW,10.4,-,N/A,,Clear,310,2014-03-24 12:55:00
8:15 AM,10.4,6.8,85,30.25,10.0,NW,12.7,-,N/A,,Clear,310,2014-03-24 13:15:00
8:35 AM,10.4,8.6,92,30.24,10.0,NW,13.8,-,N/A,,Clear,310,2014-03-24 13:35:00
8:55 AM,14.0,8.6,79,30.24,10.0,WNW,13.8,19.6,N/A,,Clear,300,2014-03-24 13:55:00
9:15 AM,15.8,8.6,73,30.24,10.0,WNW,15.0,-,N/A,,Clear,300,2014-03-24 14:15:00
9:35 AM,15.8,8.6,73,30.23,10.0,WNW,16.1,-,N/A,,Partly Cloudy,300,2014-03-24 14:35:00
9:55 AM,17.6,8.6,68,30.22,10.0,WNW,18.4,-,N/A,,Partly Cloudy,290,2014-03-24 14:55:00
10:15 AM,19.4,10.4,68,30.22,10.0,WNW,19.6,26.5,N/A,,Clear,300,2014-03-24 15:15:00
10:35 AM,19.4,10.4,68,30.22,10.0,WNW,20.7,26.5,N/A,,Clear,300,2014-03-24 15:35:00
10:55 AM,23.0,12.2,63,30.22,10.0,NW,21.9,29.9,N/A,,Clear,310,2014-03-24 15:55:00
11:15 AM,23.0,12.2,63,30.22,10.0,NW,23.0,32.2,N/A,,Clear,310,2014-03-24 16:15:00
11:35 AM,23.0,8.6,54,30.21,10.0,WNW,24.2,31.1,N/A,,Clear,300,2014-03-24 16:35:00
11:55 AM,24.8,8.6,50,30.21,10.0,WNW,25.3,29.9,N/A,,Clear,300,2014-03-24 16:55:00
12:15 PM,24.8,8.6,50,30.21,10.0,NW,19.6,32.2,N/A,,Clear,310,2014-03-24 17:15:00
12:35 PM,26.6,8.6,47,30.21,10.0,WNW,23.0,31.1,N/A,,Partly Cloudy,300,2014-03-24 17:35:00
12:55 PM,24.8,6.8,46,30.20,10.0,NW,23.0,32.2,N/A,,Partly Cloudy,310,2014-03-24 17:55:00
1:15 PM,26.6,6.8,43,30.20,10.0,NW,20.7,32.2,N/A,,Partly Cloudy,310,2014-03-24 18:15:00
1:35 PM,26.6,6.8,43,30.19,10.0,NW,23.0,29.9,N/A,,Partly Cloudy,310,2014-03-24 18:35:00
1:55 PM,26.6,5.0,40,30.18,10.0,NW,24.2,34.5,N/A,,Scattered Clouds,320,2014-03-24 18:55:00
2:15 PM,26.6,6.8,43,30.17,10.0,NW,23.0,29.9,N/A,,Scattered Clouds,310,2014-03-24 19:15:00
2:35 PM,26.6,6.8,43,30.16,10.0,NW,25.3,36.8,N/A,,Partly Cloudy,310,2014-03-24 19:35:00
2:55 PM,24.8,14.0,64,30.17,9.0,NNW,27.6,35.7,N/A,Snow,Light Snow,330,2014-03-24 19:55:00
3:15 PM,28.4,8.6,43,30.16,10.0,NW,29.9,36.8,N/A,,Mostly Cloudy,320,2014-03-24 20:15:00
3:35 PM,26.6,6.8,43,30.16,10.0,NW,27.6,38.0,N/A,,Mostly Cloudy,320,2014-03-24 20:35:00
3:55 PM,26.6,6.8,43,30.16,10.0,NW,25.3,40.3,N/A,,Partly Cloudy,320,2014-03-24 20:55:00
4:15 PM,26.6,8.6,47,30.16,10.0,NW,27.6,34.5,N/A,,Partly Cloudy,320,2014-03-24 21:15:00
4:35 PM,26.6,6.8,43,30.16,10.0,NW,28.8,39.1,N/A,,Scattered Clouds,320,2014-03-24 21:35:00
4:55 PM,24.8,10.4,54,30.16,10.0,NNW,25.3,38.0,N/A,Rain,Freezing Rain,330,2014-03-24 21:55:00
5:15 PM,23.0,14.0,68,30.16,7.0,NNW,29.9,36.8,N/A,Rain,Freezing Rain,330,2014-03-24 22:15:00
5:35 PM,23.0,15.8,74,30.17,4.0,NNW,25.3,32.2,0.02,Snow,Light Snow,330,2014-03-24 22:35:00
5:55 PM,23.0,10.4,59,30.16,10.0,NNW,29.9,40.3,0.03,,Mostly Cloudy,330,2014-03-24 22:55:00
6:15 PM,23.0,10.4,59,30.17,10.0,NNW,24.2,34.5,N/A,,Scattered Clouds,330,2014-03-24 23:15:00
6:35 PM,19.4,15.8,86,30.18,5.0,NNW,25.3,32.2,N/A,,Scattered Clouds,340,2014-03-24 23:35:00
6:55 PM,19.4,17.6,93,30.18,5.0,NNW,23.0,-,N/A,Snow,Light Snow,340,2014-03-24 23:55:00
7:15 PM,17.6,14.0,86,30.18,10.0,North,19.6,27.6,N/A,,Scattered Clouds,350,2014-03-25 00:15:00
7:35 PM,17.6,10.4,73,30.19,10.0,NNW,19.6,28.8,N/A,,Scattered Clouds,340,2014-03-25 00:35:00
7:55 PM,17.6,8.6,68,30.19,10.0,NNW,20.7,-,N/A,,Mostly Cloudy,340,2014-03-25 00:55:00
8:15 PM,15.8,8.6,73,30.19,10.0,NNW,15.0,-,N/A,,Partly Cloudy,340,2014-03-25 01:15:00
8:35 PM,15.8,6.8,68,30.20,10.0,NNW,16.1,-,N/A,,Clear,340,2014-03-25 01:35:00
8:55 PM,14.0,6.8,73,30.21,10.0,NNW,17.3,-,N/A,,Clear,340,2014-03-25 01:55:00
9:15 PM,14.0,5.0,67,30.22,10.0,NNW,19.6,25.3,N/A,,Clear,340,2014-03-25 02:15:00
9:35 PM,14.0,5.0,67,30.23,10.0,NNW,16.1,-,N/A,,Clear,340,2014-03-25 02:35:00
9:55 PM,12.2,5.0,73,30.24,10.0,NNW,15.0,18.4,N/A,,Clear,340,2014-03-25 02:55:00
10:15 PM,12.2,5.0,73,30.24,10.0,NNW,15.0,-,N/A,,Clear,340,2014-03-25 03:15:00
10:35 PM,10.4,5.0,79,30.25,10.0,NNW,17.3,-,N/A,,Clear,340,2014-03-25 03:35:00
10:55 PM,10.4,5.0,79,30.25,10.0,NNW,13.8,-,N/A,,Clear,340,2014-03-25 03:55:00
11:15 PM,10.4,5.0,79,30.25,10.0,NNW,13.8,-,N/A,,Partly Cloudy,330,2014-03-25 04:15:00
11:35 PM,10.4,5.0,79,30.26,10.0,NNW,12.7,-,N/A,,Partly Cloudy,330,2014-03-25 04:35:00
11:55 PM,10.4,5.0,79,30.26,10.0,NNW,12.7,-,N/A,,Mostly Cloudy,340,2014-03-25 04:55:00